Location: *
(10.5081°N, 66.9194°W)
Time: 04:36:54
(UTC+00:00)

NOSS 3-3 (A) - Pass Details

Date: 30 March 2020
Orbit: 834 x 1378 km, 63.4° (Epoch: 05 May)

Event Time Altitude Azimuth Distance (km) Brightness Sun altitude
Rises 23:03:56 0° 189° (S) 3,396 6.9 -7.1°
Reaches altitude 10° 23:06:31 10° 182° (S) 2,442 6.1 -7.7°
Maximum altitude 23:11:44 42° 112° (ESE) 1,180 4.0 -9.0°
Drops below altitude 10° 23:17:03 10° 42° (NE) 2,501 5.8 -10.3°
Sets 23:19:43 0° 36° (NE) 3,488 6.6 -10.9°
